Theta_e
289 288 287 287 287 286 286 286 286 286 287 286 287 286 286 285 286 285 284 284 285 285 285 284 284 284 284 284 284 284 284 284 284 284 284 284 285 290 298 302 306 309 313 315 317 318 318 319 319 320 318 318 319 320 320 320 321 319 319 320 322 323 322 321 320 320 320 320 321 321 322 323 322 322 323 324 324 325 326 326 326 327 328 329 331
289 287 287 287 286 286 286 286 286 286 286 286 286 285 285 285 284 284 284 284 285 287 284 284 284 284 284 284 284 284 284 284 284 284 284 284 285 287 295 299 303 307 310 313 314 315 316 317 318 317 316 316 319 320 320 320 318 318 318 319 321 321 320 320 320 320 319 318 318 318 319 319 320 320 321 322 323 323 324 325 325 326 327 327 328
288 287 286 286 286 286 285 286 285 286 286 286 286 286 285 285 284 284 284 283 284 285 284 283 283 283 284 283 284 284 284 284 284 284 284 284 284 285 289 296 300 303 307 310 310 312 314 315 314 313 314 316 318 319 319 317 317 317 317 318 320 320 319 318 319 319 318 317 317 317 317 318 318 319 320 320 321 322 322 323 323 324 326 327 327
288 288 287 286 285 285 285 285 285 285 286 285 286 286 285 285 284 284 283 284 284 284 284 282 282 283 282 283 283 284 283 284 284 284 284 284 284 285 286 290 295 300 302 306 308 309 310 310 310 310 312 314 315 316 316 316 316 315 316 317 318 318 317 317 317 317 317 316 316 316 317 317 318 318 318 319 320 320 320 321 321 322 323 325 327
288 288 289 286 285 285 284 286 285 286 286 286 286 285 285 285 285 284 283 283 283 283 284 282 282 282 282 283 283 283 283 283 284 284 284 284 284 284 285 288 288 295 298 301 305 306 307 307 308 308 309 310 312 313 315 315 314 314 315 315 316 318 317 317 316 316 316 316 316 315 316 316 317 317 318 318 319 319 319 320 320 321 322 323 324
288 287 287 286 285 285 284 285 284 285 285 286 285 284 284 284 284 285 287 283 282 282 282 282 281 281 282 282 282 282 283 283 283 283 283 284 284 284 285 285 286 289 290 296 299 303 305 305 304 305 306 308 310 312 313 314 313 313 314 314 315 315 315 315 315 315 315 315 314 315 315 315 316 317 317 317 318 318 319 319 320 320 321 321 322
289 288 287 286 285 284 284 284 285 285 285 285 284 284 284 283 283 282 282 281 282 284 281 282 281 282 282 283 282 284 282 282 282 283 283 283 283 283 285 285 287 289 289 286 291 299 301 301 302 303 305 306 308 309 311 311 311 312 313 314 315 314 314 314 314 314 314 314 314 314 315 315 316 316 317 317 317 317 318 318 318 319 320 321 321
288 288 287 286 285 284 284 284 285 285 284 284 284 284 283 283 283 282 281 282 282 281 281 281 281 282 282 281 282 284 281 281 283 283 284 283 283 283 284 285 287 288 290 285 285 291 298 298 299 301 303 303 305 307 308 309 309 311 313 313 314 314 313 313 313 312 313 313 313 313 314 314 315 315 316 315 316 316 317 317 317 318 319 319 320
288 288 287 286 285 284 283 284 285 284 283 283 283 284 283 283 282 284 281 281 281 281 281 281 281 281 281 281 281 282 281 282 283 284 284 282 282 282 283 284 287 289 283 283 284 284 292 295 296 297 298 299 301 304 305 306 307 310 312 312 312 313 311 310 311 312 311 312 312 312 314 314 314 315 315 315 315 315 315 315 316 317 317 318 318
288 288 287 287 286 284 283 284 284 283 283 283 283 283 282 282 281 281 281 281 279 280 280 280 282 282 281 281 281 280 281 282 285 286 281 282 282 281 282 282 282 282 283 283 283 284 284 288 292 292 294 296 298 301 302 302 304 308 311 312 311 311 310 310 310 311 311 311 311 312 313 313 313 313 314 314 314 314 314 314 315 316 316 317 317
288 288 287 287 285 284 283 284 284 283 283 283 282 282 282 280 282 281 281 280 280 280 280 281 281 282 281 280 280 280 281 284 282 282 281 281 285 284 283 282 281 282 283 282 282 283 283 283 282 282 285 294 295 297 299 299 301 305 307 310 310 310 310 310 310 310 310 310 310 311 311 311 311 311 312 313 314 314 314 315 315 315 315 316 316
288 287 287 286 285 284 283 283 283 283 283 282 282 282 281 281 281 281 281 281 281 280 279 281 280 280 282 280 280 281 282 282 280 280 281 280 281 281 282 282 281 281 282 282 282 283 283 283 285 282 284 288 292 293 295 295 296 301 304 307 308 310 310 309 309 309 309 310 310 310 309 309 310 311 311 312 312 312 313 313 314 314 315 315 315
288 287 287 287 285 284 283 283 283 283 283 283 283 282 281 281 282 282 280 279 279 279 280 279 280 279 279 279 280 281 285 281 279 280 280 280 280 280 281 281 280 281 281 282 282 282 282 282 282 282 283 281 284 289 290 291 292 298 301 303 307 309 309 309 308 308 308 308 308 308 309 308 309 310 310 310 311 311 311 312 312 313 313 314 314
288 287 287 286 285 284 283 283 283 283 283 282 281 283 282 281 282 279 279 278 278 279 279 279 279 278 278 279 279 279 284 280 280 280 280 280 280 281 281 280 280 281 281 281 281 281 281 281 281 282 282 282 282 282 283 284 287 294 298 300 304 307 308 308 308 308 306 306 307 307 308 308 308 309 309 309 309 310 310 311 312 312 313 313 314
288 287 287 286 285 284 283 283 283 283 283 282 282 281 281 282 281 281 279 279 279 280 278 278 278 278 278 278 277 278 282 279 278 279 279 279 279 280 281 280 280 280 281 281 281 280 281 281 280 281 281 281 281 281 282 284 287 290 292 295 298 302 306 307 308 306 305 306 307 307 307 307 307 308 307 308 309 309 310 310 311 312 312 312 313
287 287 287 286 285 285 284 283 283 283 283 282 281 281 281 281 280 280 281 279 277 279 281 278 277 279 279 278 275 277 277 278 278 278 277 278 279 279 280 280 279 280 280 280 280 280 280 280 280 280 281 281 281 281 282 282 286 288 289 290 294 298 301 304 304 305 304 305 305 305 305 306 306 307 307 308 308 309 309 310 310 310 311 311 312
287 287 287 286 285 285 284 283 283 283 283 282 282 282 282 282 281 280 280 280 278 277 279 279 278 280 279 276 276 279 276 276 276 277 276 278 278 277 282 279 278 280 278 279 279 279 280 280 280 279 280 280 280 280 281 281 281 285 284 288 293 295 296 301 302 303 303 303 303 303 303 304 304 305 306 307 307 308 308 308 309 309 310 310 311
287 287 287 286 285 285 284 283 282 283 283 282 282 281 281 281 281 281 279 279 280 278 277 280 279 280 278 277 277 278 276 275 277 278 277 278 277 278 278 277 278 278 278 278 278 279 281 279 279 280 280 279 280 280 280 280 284 281 283 286 294 294 295 296 299 300 301 302 302 302 302 303 303 303 305 305 306 306 307 307 308 308 309 310 310
287 287 286 286 285 284 284 283 283 283 283 282 281 281 281 282 281 280 279 281 279 277 278 277 278 278 278 278 279 278 277 277 275 276 277 277 275 276 278 277 277 277 278 278 278 278 278 279 279 279 279 279 279 279 279 280 284 285 287 290 293 295 294 294 294 296 298 299 300 301 302 302 302 303 303 304 304 305 306 306 307 308 308 309 309
287 286 286 286 285 284 284 283 283 282 283 282 282 281 281 281 281 280 279 280 280 280 277 278 278 277 279 278 278 277 276 276 276 275 274 275 276 276 276 276 276 276 277 278 277 277 277 277 278 278 278 279 279 279 279 280 279 279 282 290 292 293 293 293 293 294 294 295 298 299 300 301 301 302 302 303 303 304 305 305 306 307 307 308 308
287 286 286 285 285 284 284 283 283 282 283 282 281 281 281 281 280 279 279 279 279 279 279 278 278 278 277 275 276 276 275 276 277 276 275 275 275 275 275 275 276 276 277 276 277 277 278 278 278 280 281 281 279 278 279 279 279 279 285 289 291 292 292 292 293 293 292 293 295 297 299 299 300 301 301 301 302 303 304 304 305 306 307 307 307
286 286 285 285 285 284 284 283 283 282 283 282 281 280 280 280 281 280 279 279 278 279 279 279 278 279 279 278 276 275 275 275 275 275 275 275 276 274 274 275 274 275 276 276 276 277 277 278 277 277 277 278 278 278 278 278 279 281 285 288 288 289 290 290 292 292 292 292 293 294 295 297 298 299 300 301 302 302 303 304 304 305 305 306 306
286 285 285 285 284 284 284 283 283 283 283 281 281 281 280 280 280 279 279 279 279 278 281 278 278 278 278 278 278 278 277 275 275 275 275 274 274 274 275 275 274 274 275 276 277 277 277 277 277 277 277 277 277 278 278 278 284 285 285 285 286 287 288 290 291 291 291 292 293 293 293 294 295 296 298 300 301 302 303 303 303 304 304 305 305
285 285 284 284 284 284 283 283 283 282 282 282 281 281 280 280 280 280 279 279 279 279 278 278 277 278 278 278 278 278 278 277 277 277 277 276 276 274 274 274 274 275 276 276 276 276 276 276 276 277 277 277 277 278 280 280 282 285 282 283 284 286 288 289 289 290 291 291 291 291 292 293 293 294 295 297 299 301 302 302 302 303 304 304 304
285 285 284 284 284 283 283 282 282 282 282 282 281 280 280 280 280 280 279 279 279 279 278 278 278 278 278 278 277 277 277 277 278 277 277 276 276 274 274 275 273 273 274 275 274 275 276 276 276 276 276 277 279 278 278 278 279 283 282 280 282 284 285 286 287 289 290 290 290 291 291 292 292 293 294 296 298 299 300 300 301 302 303 303 303
285 285 285 284 284 284 284 283 283 282 282 282 281 281 280 280 280 279 279 280 279 279 279 278 278 278 278 277 277 277 276 277 277 277 276 276 275 275 273 274 273 273 274 274 274 275 275 276 276 276 276 276 277 277 277 277 277 282 282 279 278 282 283 285 287 289 289 290 290 290 290 290 291 292 292 295 296 297 298 299 300 300 301 302 302
286 286 285 284 284 284 284 283 283 282 282 281 281 280 280 280 280 280 280 279 279 279 278 278 278 278 277 277 277 277 276 277 277 277 277 277 276 275 275 273 272 272 272 274 273 275 275 275 276 276 276 277 277 276 276 275 280 282 281 276 276 280 282 284 287 289 288 288 289 289 289 289 290 291 292 291 293 294 296 297 298 299 299 299 300
286 286 285 285 284 284 283 283 283 282 282 281 281 280 280 280 279 279 279 280 279 278 278 278 278 278 277 277 277 276 277 277 277 277 277 277 276 276 275 275 274 272 272 272 273 273 275 275 275 275 276 277 277 277 279 277 277 281 279 276 275 276 280 283 286 287 288 288 289 289 288 289 289 290 290 290 291 292 292 293 294 295 295 296 296
286 286 285 285 284 284 283 283 282 282 281 281 281 280 280 280 279 279 279 279 279 278 278 278 278 277 277 277 277 277 276 277 277 277 276 276 276 276 276 275 275 273 270 270 272 273 274 275 275 275 276 276 275 276 275 274 277 279 276 275 275 275 278 283 285 286 287 288 288 287 288 289 289 289 289 290 291 292 293 293 294 294 295 295 296
286 286 285 284 284 284 283 283 282 282 281 281 281 280 280 280 279 279 279 279 278 278 278 278 277 277 277 277 277 276 276 276 276 276 276 276 276 276 275 275 275 275 273 272 272 274 273 275 275 275 275 275 276 276 276 274 278 279 276 275 275 275 280 282 283 284 285 286 286 287 288 288 289 289 289 290 290 291 292 293 293 294 294 295 296
285 285 284 284 284 284 283 283 282 281 281 281 281 280 280 279 279 279 279 278 278 278 277 277 277 277 276 276 276 276 276 276 276 276 276 276 276 276 275 275 275 274 274 272 270 273 275 274 275 274 274 274 275 275 276 276 277 278 276 275 275 278 281 279 281 283 284 285 286 287 287 288 288 288 289 289 290 291 292 293 292 293 293 294 295
285 284 284 284 284 283 283 283 282 281 281 281 280 280 280 280 279 279 279 278 278 277 277 277 277 277 276 276 276 276 276 276 275 275 275 276 275 275 275 275 275 275 274 273 273 273 274 273 274 274 274 274 275 274 274 275 276 278 275 275 276 279 277 276 279 281 283 284 285 286 287 288 288 288 289 289 290 291 291 291 292 292 293 293 294
284 284 284 284 284 283 283 283 282 281 281 280 280 280 280 279 279 279 278 278 278 278 277 276 276 276 276 276 276 276 276 275 275 275 275 275 275 275 275 275 274 274 274 273 272 272 273 273 274 273 274 274 273 274 273 274 274 274 276 275 275 275 275 275 275 279 281 283 284 285 286 287 288 288 289 289 289 290 290 290 291 291 291 292 293
284 284 284 284 284 283 283 283 282 282 281 281 280 280 280 279 279 279 278 278 278 278 277 276 276 276 276 276 275 275 276 275 275 275 275 274 274 274 274 274 274 274 275 273 272 272 271 272 271 273 272 274 272 274 273 273 273 274 274 275 275 275 275 275 275 275 280 282 284 285 286 287 287 288 288 288 289 289 289 290 290 290 290 291 291
284 284 284 284 284 283 283 283 282 282 281 281 281 280 280 279 279 278 278 278 278 277 276 276 276 276 276 276 275 275 275 274 274 274 274 274 274 273 273 273 273 273 273 273 272 270 270 270 271 271 272 272 272 272 273 273 274 274 274 274 275 276 276 276 276 276 280 283 284 285 286 286 287 287 287 287 287 288 288 289 289 289 289 290 290
284 284 284 284 284 283 282 282 282 281 281 281 280 280 280 279 279 278 278 278 278 277 277 276 276 276 275 275 275 275 274 274 274 274 274 273 273 273 272 273 272 272 272 272 272 270 270 268 270 270 273 271 272 273 274 274 274 274 274 274 275 275 275 276 276 276 278 282 284 284 285 285 285 286 286 286 287 287 288 288 288 288 289 289 289
285 284 284 284 284 283 282 282 282 281 281 281 280 280 280 280 279 279 278 278 277 277 277 277 277 276 276 275 275 275 274 274 273 273 273 272 273 272 272 272 271 271 271 271 271 271 269 268 269 271 272 272 273 273 274 273 273 274 274 274 275 275 275 276 276 277 280 282 282 282 283 283 284 284 285 285 286 286 287 287 288 288 288 289 288
285 284 284 284 284 283 283 283 282 282 281 281 280 280 279 279 279 279 278 277 277 277 277 277 276 276 275 275 275 274 274 273 273 273 272 272 272 271 271 271 271 271 270 270 270 270 270 269 269 269 271 271 272 273 273 274 273 273 274 274 275 275 275 275 276 277 278 278 277 278 280 281 282 283 284 285 286 287 287 287 287 288 287 287 287
284 284 283 283 284 283 283 283 283 282 281 281 280 280 279 279 279 278 278 277 277 277 277 277 276 276 276 275 275 274 274 274 273 272 272 272 271 271 271 271 271 270 270 270 270 269 269 269 269 270 271 273 273 272 274 275 274 274 273 273 274 276 276 275 275 276 277 277 279 281 281 281 282 281 282 284 285 286 286 286 286 286 286 285 285
284 284 283 283 283 283 283 283 283 282 282 281 280 280 279 279 279 278 278 277 277 277 276 276 276 275 275 275 275 274 274 274 273 273 272 271 271 270 271 270 270 270 270 269 269 269 269 269 270 271 272 272 273 274 274 274 273 273 275 274 273 273 274 274 274 274 276 276 276 276 279 280 280 280 282 282 283 283 284 283 283 283 283 283 284
284 284 284 283 283 282 283 283 282 282 282 281 281 280 280 279 279 278 278 278 277 276 276 275 275 275 275 274 274 274 274 276 276 275 274 274 271 270 270 271 270 270 269 269 268 269 269 270 270 272 272 272 273 273 272 272 272 272 274 275 273 273 273 274 274 275 276 275 276 276 276 277 277 277 277 277 277 279 279 281 281 281 281 283 284
283 283 283 283 283 282 282 282 282 282 281 281 282 284 283 280 279 279 278 277 277 276 276 275 274 274 274 274 274 276 277 277 277 277 277 277 276 273 271 271 270 269 268 268 268 269 270 270 270 271 271 271 272 273 273 273 274 274 273 273 271 273 274 274 275 275 276 276 275 275 276 277 276 275 275 275 276 278 277 277 277 279 281 283 285
283 282 282 282 282 282 282 282 282 281 281 281 284 285 285 284 280 278 278 277 277 276 275 274 273 273 273 273 273 275 276 277 276 278 278 278 277 276 276 275 274 270 268 268 269 271 271 270 271 272 272 272 273 274 273 274 275 274 272 273 273 273 272 271 270 274 278 276 275 273 273 275 274 273 273 274 274 275 276 275 279 281 282 284 285
282 282 282 282 282 282 282 282 281 281 281 283 284 285 285 285 283 279 278 277 276 275 275 274 274 273 272 272 272 274 274 275 275 276 277 279 278 278 278 277 277 276 275 272 271 271 272 271 272 273 273 273 274 274 274 274 273 273 273 274 274 273 272 272 273 272 276 276 273 271 270 272 273 272 272 273 274 274 275 278 281 281 282 284 284
283 282 282 282 281 282 282 281 281 281 280 284 285 285 286 286 285 281 277 277 276 275 274 274 273 273 272 271 271 273 274 277 276 275 275 276 278 279 278 278 278 278 278 279 278 275 275 274 273 273 274 274 273 274 274 273 275 273 274 274 274 274 274 273 274 274 274 274 271 269 268 271 272 271 271 273 273 274 274 277 279 281 283 284 284
282 282 281 281 281 281 281 281 281 280 280 283 285 285 286 286 285 282 277 276 275 275 274 273 273 272 272 272 271 271 273 275 274 274 275 275 276 276 276 276 276 278 280 280 280 279 279 277 275 273 275 275 273 274 274 276 274 273 274 273 275 274 273 272 273 272 273 273 269 269 267 269 271 270 270 271 273 273 273 276 280 281 283 283 284
282 282 281 281 281 281 281 281 280 280 280 283 285 285 286 286 286 284 277 276 275 274 273 273 273 272 272 272 272 272 273 274 274 274 274 275 275 275 276 276 277 277 278 278 279 278 278 276 275 274 274 274 274 275 276 277 276 276 276 276 274 273 272 272 271 271 270 271 270 269 264 268 270 269 269 270 272 272 273 277 279 280 281 282 282
282 281 281 281 281 280 280 280 280 279 279 283 284 285 286 286 286 281 276 275 274 273 273 273 273 273 273 273 272 273 273 274 276 278 277 275 275 274 274 275 274 274 274 276 278 278 276 275 275 276 276 276 278 277 277 278 278 278 277 274 273 271 268 266 265 267 267 270 271 269 266 267 270 268 269 271 272 271 273 273 277 279 279 281 281
281 280 280 280 280 280 280 279 279 279 278 282 284 285 286 286 285 279 276 274 273 273 273 273 273 273 273 273 274 273 274 274 277 280 279 278 274 273 272 271 271 272 272 274 277 279 278 279 279 280 280 281 281 281 280 280 278 278 273 270 267 265 264 263 264 264 265 268 269 269 267 265 268 269 269 271 271 271 271 272 273 276 278 280 281
279 279 279 279 278 278 279 278 279 278 278 280 284 285 286 286 284 278 275 274 273 273 272 273 273 273 274 276 275 274 274 274 279 281 281 278 273 272 272 271 270 270 272 274 275 277 280 280 280 280 280 279 279 278 278 277 277 276 270 267 266 264 263 262 262 263 264 266 268 270 265 266 269 270 269 270 270 271 272 272 273 274 276 277 279
278 277 276 276 275 275 276 277 279 278 277 278 283 284 285 286 284 277 274 273 272 272 272 272 273 273 274 276 277 276 275 276 281 282 282 278 273 272 272 271 270 270 271 274 274 272 274 274 274 274 274 275 274 272 272 274 274 272 269 267 264 262 261 261 262 262 262 264 268 270 266 267 268 269 269 266 265 268 271 271 272 272 272 273 273
Wind_Speed
7 6 5 5 4 5 5 5 5 5 5 5 5 6 5 5 4 4 3 3 3 3 3 3 3 3 4 3 3 3 3 3 3 3 3 3 3 5 10 10 11 11 12 12 12 11 10 9 8 11 12 13 13 12 12 13 13 14 14 14 13 13 14 15 16 15 16 16 16 17 17 17 17 17 17 17 17 17 17 17 17 17 17 17 18
7 6 7 6 5 4 5 5 5 5 5 6 4 6 6 5 4 4 4 3 3 2 3 4 4 3 4 3 3 2 2 2 3 3 3 3 3 3 8 10 11 11 12 12 12 12 10 9 10 12 12 13 12 12 13 13 14 15 15 14 14 14 14 15 15 16 16 17 17 17 17 17 17 17 17 18 18 17 17 17 17 17 16 16 16
7 7 6 6 5 5 5 5 6 5 4 5 3 5 5 5 6 6 5 5 4 2 3 5 4 4 3 3 3 3 3 2 2 2 3 3 3 3 4 9 10 11 11 12 13 12 12 12 12 12 13 13 12 12 13 13 14 15 15 15 14 14 15 16 16 16 16 17 17 17 18 18 18 17 18 18 18 18 18 18 18 18 17 17 16
7 7 6 7 6 6 5 6 6 4 4 5 5 4 4 3 3 3 3 4 5 4 3 5 5 5 3 3 3 4 4 3 3 3 3 3 4 4 4 5 8 11 11 12 13 13 12 13 13 13 13 13 13 12 12 13 14 14 14 15 14 14 15 15 16 16 16 17 17 17 18 18 17 17 17 17 18 18 18 18 18 18 18 18 17
7 8 7 7 6 6 5 5 5 5 4 4 4 4 4 4 4 3 4 3 4 4 3 5 5 4 3 3 3 3 3 3 3 3 3 3 4 4 5 4 4 8 11 12 13 13 13 14 14 13 13 13 13 12 13 13 13 13 13 13 13 14 14 15 15 16 16 17 17 17 17 17 17 17 17 17 17 17 18 18 18 18 18 18 18
8 7 6 7 6 6 6 5 5 4 5 5 6 5 5 5 5 4 3 4 5 3 4 5 4 3 4 2 3 3 3 3 3 3 3 4 3 4 4 4 5 5 5 10 12 13 13 14 13 13 13 14 14 13 14 14 13 13 13 13 14 14 15 16 16 16 17 17 17 17 17 17 17 17 17 18 18 18 18 18 18 18 19 19 18
8 8 7 7 7 6 6 6 5 5 6 5 6 5 4 5 5 6 4 5 4 3 4 4 3 5 3 2 3 2 3 3 2 3 4 3 3 3 4 4 5 4 5 5 7 11 14 14 13 13 14 14 14 14 14 14 13 13 13 13 14 15 15 15 16 16 17 17 17 17 16 16 17 17 18 18 18 19 19 19 19 19 19 19 19
9 8 8 7 7 7 7 6 5 6 6 5 5 6 5 4 2 4 6 3 3 3 2 4 3 4 2 3 2 2 3 3 3 3 3 3 5 4 4 4 3 4 4 6 6 6 13 13 14 14 15 14 14 14 14 14 13 13 12 13 13 14 15 16 16 16 16 16 16 16 17 17 17 17 18 19 19 19 19 19 19 20 20 20 20
9 9 8 8 7 7 6 6 5 6 6 5 5 5 5 5 2 0 3 5 4 3 2 3 4 3 3 3 3 3 3 2 2 3 3 5 4 4 4 4 3 5 5 5 5 5 8 14 14 15 15 15 15 15 14 14 13 13 12 13 13 14 15 15 15 15 15 15 15 16 16 17 17 17 17 18 18 19 19 20 20 21 21 21 21
10 9 8 8 7 7 6 7 6 6 6 5 5 4 3 4 5 1 3 5 4 4 3 3 3 4 5 4 3 4 3 3 2 3 5 4 4 4 3 3 4 4 5 4 4 4 4 8 12 12 14 14 15 15 14 14 13 13 13 13 14 14 14 14 14 14 15 15 15 16 16 17 17 17 18 18 18 19 20 20 20 20 21 21 21
10 10 9 8 7 7 7 7 6 6 6 6 5 5 4 3 5 4 2 3 4 2 3 4 5 5 5 4 3 3 3 3 3 4 4 3 3 2 3 5 3 4 4 4 3 4 6 6 6 5 6 13 14 15 14 14 14 14 14 14 14 14 14 15 14 15 15 15 16 16 16 17 17 18 18 18 19 19 19 20 20 21 21 22 22
10 10 9 9 8 8 8 7 7 7 8 8 7 7 8 6 5 7 6 3 2 1 2 5 5 6 5 5 4 3 4 4 4 4 3 3 3 3 5 3 5 4 4 3 5 5 6 6 5 5 5 7 13 13 13 15 15 15 15 15 14 15 15 15 15 15 15 16 16 17 17 16 16 17 17 18 19 19 20 20 20 21 21 21 22
10 10 10 9 8 7 7 7 7 8 8 9 8 7 5 5 6 4 5 3 1 0 1 3 6 4 4 5 5 3 3 3 4 3 3 3 2 5 3 4 4 5 4 4 5 6 5 6 5 5 5 3 5 9 12 14 14 15 15 15 15 15 14 15 15 15 16 16 17 17 16 17 17 17 17 18 18 19 19 19 20 20 21 21 21
10 10 10 10 10 9 9 10 9 8 7 4 5 5 6 6 6 4 1 3 2 2 1 3 2 4 4 2 4 3 1 1 3 3 4 3 3 4 4 4 5 4 4 5 5 4 4 4 4 4 3 2 3 4 5 6 8 14 15 15 16 15 15 15 15 16 17 17 17 17 17 17 17 18 18 18 18 18 18 19 19 20 21 22 22
11 11 10 10 10 10 10 9 9 8 8 8 7 8 8 9 9 8 5 1 2 1 0 2 4 2 2 5 1 1 0 1 1 3 4 2 2 3 3 3 4 3 3 4 4 4 3 3 3 3 3 2 3 3 4 4 6 12 13 14 14 15 15 15 16 17 18 18 18 18 18 19 19 19 18 18 18 19 19 19 20 20 21 21 22
11 11 10 10 11 12 10 9 10 10 10 10 10 10 9 8 7 5 7 5 2 2 1 0 4 8 2 1 2 2 0 7 4 3 2 1 2 2 2 2 3 4 4 4 3 3 3 3 4 3 3 2 2 3 4 3 6 8 10 10 11 13 14 14 15 16 17 17 18 18 19 20 20 20 20 20 20 20 20 21 21 21 21 21 21
12 13 12 13 12 11 11 11 10 10 9 9 10 12 12 10 10 8 9 8 7 2 0 1 1 1 6 5 2 0 4 1 1 2 1 1 1 2 1 1 2 3 3 3 3 3 3 4 4 4 3 3 3 3 3 3 3 3 4 7 8 11 13 14 15 16 17 17 18 19 19 19 19 20 20 20 21 21 22 22 21 21 21 21 21
12 13 13 12 12 12 11 11 11 10 10 10 9 6 8 10 11 10 8 4 8 6 3 1 2 3 1 1 2 2 4 2 2 3 1 0 2 3 3 2 1 1 2 3 3 4 3 4 4 5 5 4 3 3 3 2 2 2 2 5 9 10 11 13 15 16 17 17 18 18 18 18 19 19 20 20 21 21 22 22 22 22 22 22 22
12 13 13 12 12 12 12 12 11 11 9 8 9 11 11 11 8 7 8 6 7 6 10 6 3 2 3 3 4 2 3 7 4 2 1 1 1 2 3 2 2 1 2 3 3 3 3 2 4 5 5 4 3 2 2 2 3 3 6 6 8 10 12 14 15 15 16 17 17 17 17 17 18 18 19 19 20 21 21 21 21 22 22 23 23
12 12 12 12 12 12 12 11 11 11 10 11 11 10 7 5 7 5 5 6 8 9 8 9 9 4 2 4 4 4 4 4 3 6 4 3 2 1 2 3 3 2 3 5 4 3 3 3 4 5 5 5 3 3 2 2 1 2 2 5 7 10 13 14 14 14 15 15 15 15 16 17 17 18 18 19 20 20 20 20 21 22 22 23 23
12 13 13 13 12 13 12 12 11 11 11 10 8 8 11 10 9 8 8 7 6 5 10 10 7 9 7 2 4 4 4 4 2 3 4 3 4 2 4 3 2 3 3 3 3 2 3 3 4 4 4 4 3 3 3 1 2 1 4 5 8 11 14 15 15 14 14 14 14 15 16 16 17 18 18 18 19 19 20 20 21 21 22 23 24
11 12 12 13 13 13 13 14 14 12 11 11 10 9 9 10 11 11 9 8 5 7 10 9 7 8 9 10 7 4 4 2 1 2 2 1 4 4 3 2 3 3 1 3 3 4 4 4 5 4 4 4 3 3 2 1 1 2 2 8 9 12 14 15 15 14 13 13 13 14 15 15 17 17 18 18 19 19 19 20 20 21 22 23 23
11 10 13 13 13 13 13 13 11 11 11 11 12 12 11 10 9 7 8 10 8 8 4 6 7 8 8 10 12 13 11 8 9 7 5 4 2 4 4 3 5 5 3 1 2 4 5 4 4 4 4 4 3 2 1 1 2 4 9 10 11 13 15 17 16 15 14 14 13 14 14 15 15 17 18 18 19 19 20 20 20 21 22 23 23
10 10 12 13 13 12 11 12 12 12 13 12 11 10 9 9 9 9 9 8 6 7 7 9 9 8 9 8 8 8 6 7 9 10 10 7 8 5 5 1 2 6 5 3 5 6 4 4 4 4 4 3 2 1 0 0 2 7 6 10 12 13 15 16 16 15 14 14 14 14 15 15 16 16 17 18 19 19 20 21 21 22 23 23 23
13 14 14 15 12 12 13 13 12 13 12 11 11 11 11 10 10 11 10 11 11 11 10 12 13 12 12 8 6 7 7 3 7 8 5 6 8 6 3 2 5 3 2 0 2 2 5 4 3 4 3 2 0 1 2 2 2 5 6 5 11 12 14 15 15 15 15 15 15 15 16 16 17 18 18 19 19 20 21 21 22 22 23 24 24
16 16 14 13 12 14 13 13 13 11 12 13 12 12 12 11 12 12 13 11 9 11 10 9 9 8 6 9 8 7 5 6 7 8 9 9 7 8 8 4 2 5 3 2 2 2 0 2 3 3 2 2 2 4 3 2 2 5 7 4 6 11 13 14 15 15 15 15 15 16 16 17 18 18 19 19 20 20 21 22 22 23 24 24 25
14 13 12 15 15 13 14 14 13 12 11 11 10 10 11 10 10 11 9 9 10 10 9 10 11 10 8 8 8 6 6 6 7 8 8 9 9 9 10 8 5 4 2 3 2 5 3 1 1 3 1 2 4 4 3 2 2 6 7 3 4 10 14 16 16 16 16 16 16 17 17 17 17 19 19 20 20 21 22 22 23 24 25 26 26
11 12 14 14 15 15 14 14 14 13 13 13 12 11 11 11 9 9 11 7 10 11 9 9 10 10 9 6 7 7 6 7 6 6 6 5 5 7 6 5 5 4 1 2 2 3 3 3 1 2 2 3 4 3 3 3 1 5 4 3 4 5 12 16 16 17 17 18 17 18 18 18 18 19 19 20 20 21 22 23 23 24 25 26 26
12 13 14 15 15 15 14 14 14 13 13 13 13 12 11 11 11 11 12 10 9 11 9 10 9 9 7 9 8 7 7 6 5 6 6 5 5 5 6 7 6 5 1 1 4 3 3 3 4 2 4 5 5 3 2 1 2 3 1 2 3 3 9 16 17 18 18 19 19 19 19 19 19 19 20 21 21 22 22 23 24 25 26 26 27
10 10 12 14 14 16 14 14 13 12 13 13 13 13 12 11 12 11 10 9 10 8 8 8 8 8 7 7 6 7 6 7 7 6 6 6 6 6 5 3 5 7 6 6 6 4 4 2 1 3 4 4 2 2 3 1 4 6 4 5 4 4 12 16 16 17 18 18 19 19 19 20 20 20 21 22 22 22 23 23 24 26 27 28 28
10 11 11 12 13 14 14 13 13 14 12 13 12 12 13 12 11 11 9 10 10 10 8 9 8 9 10 10 7 7 7 8 7 6 6 6 6 6 5 5 4 4 7 5 1 5 3 3 1 2 1 1 1 1 2 1 4 6 4 5 4 9 15 11 15 17 18 18 18 19 19 19 20 20 21 22 22 23 24 25 26 26 27 28 28
9 10 12 14 14 15 14 15 15 14 14 13 13 13 12 12 12 11 11 12 11 11 10 8 8 9 10 11 10 9 8 7 7 7 7 6 6 7 6 6 5 5 5 6 6 8 2 3 1 2 4 6 9 8 7 7 6 11 7 8 8 12 8 7 12 17 18 19 19 19 20 20 20 20 20 21 22 23 24 24 26 27 27 28 28
11 12 13 14 14 15 15 15 16 15 15 14 13 12 13 13 12 12 11 12 13 11 10 10 8 9 10 10 10 8 9 10 8 8 8 8 7 7 6 7 7 7 8 8 8 9 4 2 1 1 3 3 6 4 6 6 8 7 7 7 8 7 8 7 8 13 17 18 19 19 19 19 19 19 20 20 21 22 23 24 25 26 26 27 27
11 14 14 13 13 14 15 16 15 15 15 15 14 14 15 14 14 11 12 14 13 12 10 12 11 9 10 11 10 10 10 11 10 10 9 9 9 8 8 9 9 9 8 9 8 7 9 1 1 0 1 1 5 4 4 5 7 6 8 8 6 6 7 7 7 7 15 17 18 19 19 19 19 19 20 21 22 23 24 24 25 25 26 27 28
11 12 13 12 13 14 14 14 14 14 16 16 15 15 15 16 16 14 13 14 15 14 14 14 13 11 11 12 12 11 9 10 10 10 9 10 9 10 10 8 9 8 9 8 7 8 8 5 3 3 4 4 5 6 4 5 7 7 8 8 8 7 7 7 7 6 12 16 18 18 19 19 20 21 21 22 23 23 24 25 25 26 27 27 28
12 12 11 13 12 13 14 14 14 15 15 16 15 16 17 16 16 16 14 14 14 14 15 14 14 14 14 13 12 13 12 12 11 10 10 9 10 9 9 8 8 9 8 8 7 6 5 5 2 5 4 3 5 7 7 6 7 7 7 8 8 8 8 7 7 7 9 15 17 18 19 20 21 21 21 22 22 23 24 25 25 26 26 28 28
12 10 12 12 14 14 15 16 17 16 16 15 15 15 14 14 16 14 14 14 14 15 14 14 13 15 15 15 14 14 14 13 11 11 11 13 10 9 10 8 8 7 7 8 7 7 6 7 4 3 4 4 5 7 7 6 6 7 7 8 8 8 7 7 6 6 11 15 15 17 18 20 20 21 21 21 22 23 24 25 26 27 28 29 30
11 12 14 13 14 16 16 15 16 16 15 15 16 16 16 15 15 15 14 14 15 15 14 14 14 14 14 14 13 14 15 16 15 13 12 13 10 10 10 9 8 8 8 7 7 7 7 6 5 4 3 5 4 5 6 7 7 7 6 7 6 6 5 4 4 4 3 5 6 7 10 12 14 19 19 19 22 24 24 26 27 28 28 29 29
14 13 12 13 13 14 15 15 17 17 16 17 16 16 15 16 17 17 17 16 15 14 14 14 14 13 13 12 13 14 16 15 14 15 14 13 11 12 11 10 9 9 8 8 8 8 7 6 5 5 5 5 6 5 6 7 7 7 7 6 5 4 4 4 7 5 5 7 8 15 13 13 15 13 16 21 23 23 24 25 26 28 28 29 30
14 15 15 16 14 13 13 13 12 11 13 14 16 16 16 16 16 16 16 17 16 15 14 14 13 14 14 13 13 15 15 14 14 13 13 13 11 11 9 9 9 10 9 8 7 7 6 5 5 5 5 5 5 6 6 5 5 5 5 5 8 7 6 5 6 9 6 6 7 5 6 9 9 13 17 18 19 23 25 24 26 27 30 30 30
12 14 13 13 12 13 12 13 14 13 14 15 14 15 16 17 16 17 17 17 17 17 15 14 13 13 13 12 13 13 13 13 15 14 14 13 12 12 10 10 10 10 8 7 7 6 6 5 4 4 4 5 6 5 5 5 4 5 4 4 7 7 8 7 4 4 6 7 5 5 5 4 7 6 8 9 9 17 19 24 21 25 26 27 28
12 11 11 12 13 15 15 15 14 13 14 13 15 21 20 17 18 15 15 15 16 16 16 15 14 13 14 12 11 17 18 19 18 19 20 19 16 12 12 12 11 10 9 9 8 7 6 6 6 5 6 5 5 4 4 3 3 3 3 5 7 8 8 8 5 1 3 5 7 7 6 7 11 12 8 10 9 10 10 10 9 14 21 27 28
12 11 11 13 15 14 15 15 15 14 13 12 15 22 23 21 15 14 13 13 14 14 14 16 16 15 13 12 10 15 16 17 16 21 20 20 20 18 18 17 14 13 12 10 8 8 8 6 6 6 5 5 5 3 2 3 2 2 4 4 6 7 8 10 11 3 3 6 8 8 12 8 9 10 5 7 10 10 8 9 18 24 27 29 30
10 9 12 14 13 12 12 14 15 15 14 11 18 22 24 24 19 14 12 11 12 13 13 14 13 13 13 12 11 10 12 14 13 15 18 21 21 20 20 19 19 18 15 11 10 9 9 8 7 7 6 6 5 3 3 1 3 4 5 6 7 8 9 10 10 12 7 10 14 14 12 4 7 11 9 5 8 9 10 17 25 28 29 28 29
8 10 12 10 13 13 13 15 15 14 13 16 21 23 24 25 25 19 12 13 13 13 13 13 13 13 12 12 12 10 10 20 15 12 12 13 18 21 20 20 20 21 20 18 14 9 8 9 8 7 7 4 4 3 2 1 4 8 8 7 7 8 9 9 8 10 9 9 13 14 14 5 4 10 11 8 8 9 11 17 25 27 30 29 28
8 10 10 12 11 11 13 14 13 12 14 16 24 25 26 27 26 22 13 14 13 13 14 14 12 14 15 15 12 9 10 14 12 13 12 12 12 12 13 12 11 17 19 19 18 19 14 8 7 7 5 4 4 2 2 4 7 6 7 6 6 6 4 5 9 9 9 6 9 12 16 4 2 10 14 9 8 10 8 17 26 26 28 29 30
10 11 11 12 12 12 12 12 11 12 12 17 23 25 25 26 26 22 13 12 11 11 12 13 14 13 15 13 9 11 12 14 13 16 14 13 12 12 12 12 12 11 11 11 11 9 7 4 4 4 3 2 3 5 6 6 8 7 6 5 4 4 5 8 8 7 8 2 4 6 11 12 6 10 15 10 9 13 8 13 23 27 30 33 33
6 6 7 8 10 11 12 12 13 13 11 19 23 24 26 26 27 16 13 13 12 11 11 12 12 11 11 8 9 10 10 11 18 24 18 13 12 13 13 10 8 7 6 5 6 6 4 3 3 4 5 7 8 7 7 6 5 4 3 3 5 5 6 8 10 7 7 2 3 6 10 12 7 9 17 11 8 13 11 10 20 28 28 29 30
8 9 9 9 10 11 12 12 13 12 10 17 24 25 26 27 21 12 12 11 11 12 12 12 12 11 12 10 10 10 12 9 19 25 24 19 12 13 12 10 8 6 6 5 11 14 13 14 14 14 13 13 10 8 9 11 8 3 3 5 4 3 5 9 12 8 8 4 5 5 8 12 8 9 14 16 13 16 14 12 10 17 23 27 30
9 9 8 8 8 9 11 13 13 12 11 14 23 24 26 28 20 14 12 12 11 11 10 11 10 10 12 19 16 12 11 12 22 25 25 19 12 13 12 11 10 9 7 6 6 8 15 16 16 14 11 7 8 9 6 5 5 5 2 4 3 3 6 4 10 11 10 6 8 6 2 5 9 8 12 14 17 12 7 10 11 10 18 21 28
8 6 6 7 7 7 8 10 8 11 9 11 21 23 25 26 19 11 11 11 12 11 11 10 10 10 11 16 22 15 10 16 25 25 26 20 12 13 13 11 11 10 8 9 8 6 5 4 2 2 3 5 1 4 0 4 7 6 2 4 3 2 6 5 6 8 11 3 4 2 7 8 10 9 8 13 15 17 3 7 11 12 12 14 15
Wind_Direction
165 169 155 164 149 139 133 129 123 130 125 117 127 131 125 129 130 134 125 126 126 114 108 84 71 60 71 69 61 54 43 35 31 28 31 33 26 10 23 26 32 37 32 43 44 45 46 46 49 48 39 38 40 45 46 44 42 40 38 38 38 42 42 40 38 35 34 32 29 26 23 21 20 18 15 15 14 12 11 10 9 7 6 5 5
168 163 165 163 154 138 131 139 141 144 138 141 147 137 144 139 138 140 140 144 128 127 108 88 64 51 49 56 45 43 39 40 33 33 31 36 28 21 21 27 32 39 38 48 47 50 53 53 49 41 37 35 37 45 45 42 39 37 37 36 36 40 40 37 34 34 33 30 27 24 21 19 18 16 14 13 12 10 9 8 7 5 4 3 2
166 166 166 156 154 149 148 146 146 158 149 143 142 146 145 151 157 156 154 142 115 98 96 80 64 47 32 38 19 15 23 14 26 26 37 30 31 31 20 26 32 35 40 49 49 51 51 51 44 38 38 35 36 43 43 38 37 36 36 34 34 38 37 33 31 31 30 30 26 23 20 19 17 16 14 13 11 9 7 5 4 3 3 1 360
166 168 165 159 160 159 157 159 166 157 151 147 149 146 146 144 138 139 136 122 110 86 79 84 69 54 35 31 4 14 10 7 23 26 30 30 28 28 29 29 27 35 36 40 46 49 49 46 42 40 38 34 36 38 40 39 36 38 37 34 34 34 34 32 30 29 28 29 26 23 20 18 16 15 14 13 11 8 6 3 0 359 359 358 359
171 172 166 160 157 158 163 172 164 158 151 151 142 140 134 135 122 121 106 98 91 66 77 81 73 55 51 24 15 11 359 11 17 25 29 29 30 26 34 34 30 30 32 38 37 44 46 45 42 40 35 34 33 37 38 39 39 38 36 35 34 32 32 31 29 28 28 27 25 22 19 17 15 13 13 12 10 8 5 2 0 358 356 355 355
164 168 161 156 158 166 167 172 167 160 154 151 152 157 148 138 142 120 94 88 83 62 66 61 59 72 57 30 27 9 358 22 20 23 26 41 25 38 31 33 35 40 36 34 36 42 44 44 41 37 36 32 31 32 34 36 35 33 32 32 32 32 30 29 28 27 26 24 21 20 18 17 14 14 12 10 8 7 4 3 0 359 357 355 353
169 165 164 161 162 167 175 177 164 160 159 168 154 153 146 142 144 112 89 79 84 72 74 78 77 62 45 46 36 20 25 31 14 33 36 26 41 36 30 31 36 50 48 44 33 34 43 41 38 36 34 32 30 29 30 31 30 29 29 32 32 34 32 30 28 27 24 20 19 19 18 16 16 14 12 9 7 5 3 2 0 358 356 355 353
170 165 163 169 170 175 176 163 168 161 164 160 151 155 150 132 111 132 117 96 102 64 69 80 77 72 59 62 50 55 49 34 36 37 19 44 45 40 32 32 38 53 53 48 48 31 43 41 40 37 33 30 28 27 25 27 27 26 28 31 32 37 34 32 28 26 23 21 20 20 19 18 17 14 12 9 6 3 1 360 359 357 355 354 353
171 170 164 170 173 171 168 169 165 165 162 164 161 157 152 141 121 81 135 141 125 120 65 76 68 70 71 65 52 65 58 39 37 44 32 51 43 41 43 37 40 50 49 52 48 43 35 42 40 35 27 27 24 22 23 23 23 21 26 30 34 36 35 31 28 27 27 24 22 22 21 20 18 15 12 8 5 3 1 359 356 354 352 351 349
172 171 169 171 171 167 162 167 165 161 160 161 164 148 146 148 127 79 115 123 130 123 104 76 79 78 66 53 44 64 53 49 47 46 55 50 44 46 38 42 48 42 45 47 45 45 44 37 38 33 24 24 22 18 19 21 18 17 23 30 33 34 32 30 30 30 28 26 25 24 22 19 16 13 10 8 5 3 0 358 356 354 351 348 346
173 170 167 166 165 166 165 170 164 163 159 160 156 157 151 154 140 112 77 87 132 150 131 109 91 81 68 44 50 56 55 69 54 59 57 54 53 43 45 33 46 42 43 43 40 49 45 38 33 30 19 22 21 16 16 19 14 16 22 26 29 29 31 30 30 30 27 26 26 23 20 18 14 10 8 6 4 2 360 357 354 352 350 347 344
174 171 168 166 168 172 169 166 169 165 167 168 174 176 169 149 147 134 124 81 35 92 103 115 87 76 67 56 51 56 71 68 63 51 52 46 46 47 41 27 47 34 42 29 44 43 44 33 29 21 24 17 22 17 16 18 12 16 23 23 26 26 28 28 28 28 26 25 21 18 17 15 14 12 9 6 3 360 357 355 353 350 348 344 341
173 169 174 168 169 162 163 172 174 176 180 187 176 167 164 155 143 132 134 121 87 352 170 133 122 75 47 58 47 27 55 70 69 40 27 14 55 60 25 49 31 39 20 34 41 38 34 29 19 16 14 16 12 14 16 17 11 18 23 23 21 23 24 26 26 27 22 18 16 16 16 15 13 10 8 4 360 357 353 350 348 347 344 341 338
172 174 171 170 168 170 175 178 176 183 183 162 163 165 157 158 155 109 37 135 158 204 217 116 37 149 143 70 16 360 33 348 359 3 355 13 1 56 30 51 38 19 22 38 32 35 29 22 20 8 1 6 13 15 11 11 5 18 21 21 17 19 22 25 23 21 16 14 14 14 13 11 8 5 2 359 356 353 350 347 347 345 342 339 336
175 175 172 176 174 172 182 176 180 173 167 172 173 176 178 174 180 158 134 52 121 193 184 208 142 123 112 97 66 73 319 345 4 359 353 348 343 46 46 50 33 34 32 43 27 12 12 15 11 2 348 354 11 19 13 12 8 18 20 18 15 18 17 20 18 15 13 11 10 8 6 4 1 359 357 355 353 351 349 348 347 346 342 337 334
174 175 178 177 177 181 175 177 183 183 179 173 180 183 180 185 187 188 150 131 165 178 81 176 151 138 97 125 180 125 57 248 232 281 309 347 23 359 56 41 39 28 25 28 359 357 360 6 0 349 336 337 360 17 12 10 11 15 9 359 7 20 15 15 13 12 9 8 4 2 360 358 357 355 354 353 350 348 347 346 345 342 338 334 332
179 182 179 181 181 180 178 182 180 183 182 183 185 189 186 185 181 174 188 155 174 162 158 52 73 357 142 113 67 261 217 230 66 278 24 82 352 340 350 33 59 61 30 342 348 358 1 355 344 342 337 333 349 7 2 6 5 12 357 332 2 24 17 12 10 7 4 1 359 357 356 354 355 353 352 349 347 346 345 343 341 338 334 331 329
182 181 183 180 183 182 180 177 181 182 188 191 186 169 184 187 193 187 189 207 146 149 123 57 47 43 45 127 163 173 178 228 120 222 350 200 292 302 293 331 339 55 22 349 348 333 353 345 339 329 327 317 318 347 348 337 351 352 339 328 26 23 20 13 5 360 356 354 354 354 353 353 353 350 348 346 345 343 341 339 337 334 331 328 327
184 184 185 184 181 181 181 183 183 185 184 180 185 192 190 193 179 190 194 158 140 141 159 162 89 31 39 45 66 53 120 130 197 82 288 305 312 295 290 326 344 6 338 330 313 327 321 339 325 316 310 298 292 305 320 320 343 1 354 5 26 25 18 8 358 351 351 351 351 351 351 350 348 347 344 343 341 338 336 334 333 329 327 325 324
183 186 186 184 183 183 182 181 183 186 182 191 194 191 181 186 187 192 170 186 173 155 161 168 158 180 110 85 70 61 47 68 105 159 159 164 253 318 278 303 346 300 287 297 284 265 295 318 316 311 299 295 277 283 280 291 316 336 323 356 31 26 11 358 351 349 349 348 347 347 347 345 345 343 341 339 337 334 332 330 328 326 324 322 321
188 185 187 186 185 185 182 183 184 186 189 193 193 182 186 179 178 180 189 194 192 156 149 179 166 158 140 82 83 57 44 42 65 75 128 139 259 218 267 332 355 281 286 288 259 258 251 280 299 289 285 284 289 285 288 305 321 321 318 18 35 17 2 353 347 347 346 344 343 343 342 343 342 340 338 335 332 330 328 327 325 323 322 320 319
192 191 186 188 187 184 185 187 189 186 188 190 183 182 185 190 188 187 182 180 185 172 175 171 176 161 165 150 137 110 60 18 17 103 48 85 172 208 204 221 292 290 270 291 284 272 268 287 296 288 284 282 284 283 292 318 292 307 339 45 21 8 355 348 344 344 341 340 341 341 339 339 337 335 332 331 329 326 326 325 323 321 319 317 316
190 192 193 189 189 187 188 190 187 187 187 184 190 187 189 186 184 181 185 181 179 178 167 169 162 166 166 168 167 170 171 174 185 186 161 152 113 266 256 210 202 298 267 240 252 255 258 265 260 270 264 270 271 284 318 310 303 55 44 23 11 358 351 345 344 341 337 337 338 336 333 333 333 331 329 327 326 324 323 323 322 319 316 314 313
187 192 196 192 190 190 187 187 190 187 192 192 188 187 180 177 176 183 186 186 172 173 169 165 176 176 182 185 183 180 168 164 174 170 174 180 156 154 185 276 287 224 270 277 261 251 250 243 238 234 245 247 276 274 325 107 49 61 51 17 0 354 346 342 338 334 333 334 333 331 330 330 330 327 326 325 323 323 323 321 320 317 315 314 313
195 196 199 190 186 185 189 192 193 196 192 185 188 180 178 180 182 184 183 183 185 181 176 185 177 178 189 192 175 181 187 164 150 163 153 130 141 125 200 166 223 295 268 86 290 253 218 227 217 233 220 224 187 114 122 78 37 44 56 16 355 346 343 337 331 328 330 330 328 328 328 328 326 326 324 323 323 323 322 320 318 316 315 315 315
192 199 190 183 189 197 192 195 197 191 190 190 185 184 180 182 182 184 189 192 180 185 188 181 186 191 163 169 185 183 170 161 154 152 157 144 155 164 145 195 210 252 280 312 280 351 271 234 234 215 184 148 139 125 116 103 43 24 17 13 343 340 339 331 326 326 329 327 325 325 325 324 323 322 322 322 322 322 320 318 317 316 315 316 316
195 191 175 187 192 190 194 193 191 191 189 190 190 185 185 184 187 191 188 185 187 182 185 177 182 183 182 183 170 169 170 165 163 171 165 174 162 165 155 150 196 198 233 249 258 229 225 303 342 301 189 122 136 133 144 91 33 4 9 357 333 338 335 328 323 325 326 325 323 323 323 321 320 320 322 321 320 319 319 317 316 315 316 316 316
190 180 190 184 189 192 190 195 190 189 189 189 186 186 186 186 188 188 191 186 185 187 187 180 186 182 178 163 159 178 168 170 171 163 169 159 153 156 159 148 159 253 357 331 188 258 197 192 319 247 190 156 151 156 127 99 347 351 360 332 330 328 323 320 322 324 324 321 322 323 321 320 318 318 318 319 318 317 316 316 315 315 316 316 316
190 188 183 187 188 188 189 192 192 191 188 188 187 186 185 190 190 190 193 186 187 191 180 184 186 172 173 176 175 165 170 163 162 159 154 152 162 164 178 166 158 139 155 345 276 180 204 203 151 208 200 166 163 177 139 172 276 324 292 315 316 309 304 315 320 321 319 320 321 321 320 319 318 316 317 318 317 316 316 316 316 316 316 316 315
188 186 185 184 186 187 189 190 192 189 192 189 188 187 184 192 194 195 193 178 187 188 188 181 175 171 171 168 166 167 166 167 170 161 161 164 164 173 176 158 158 159 160 168 252 207 205 172 167 150 171 170 182 188 174 186 302 347 347 327 312 286 301 314 313 313 314 317 317 318 318 317 316 317 317 318 318 317 316 316 316 316 316 315 314
189 185 185 186 187 189 189 189 187 191 189 192 188 188 187 191 191 193 185 180 186 189 186 180 178 170 174 175 169 167 165 166 159 162 162 162 169 165 168 159 182 148 149 132 158 284 165 217 19 43 49 260 225 272 311 335 334 336 312 282 271 287 305 303 306 309 313 315 316 315 315 314 314 315 317 316 317 317 316 316 315 314 313 312 311
198 185 187 189 188 188 191 188 188 187 189 191 188 190 188 196 190 190 188 181 187 189 185 184 174 179 174 177 176 169 166 160 163 168 169 169 164 169 172 173 179 168 151 161 181 240 120 147 109 34 16 334 323 324 331 334 340 333 310 305 303 309 309 302 304 306 309 312 313 314 313 313 313 314 315 316 316 316 316 313 312 311 311 311 310
186 192 196 193 191 191 188 190 189 187 187 188 189 189 192 195 195 193 184 186 189 191 179 183 182 178 181 178 174 171 163 167 170 167 172 172 168 173 171 174 180 179 172 169 189 242 285 107 46 356 15 10 320 348 333 329 318 306 296 291 296 296 295 291 290 291 296 301 304 306 307 309 311 312 313 315 315 314 313 311 309 309 308 308 307
189 199 196 194 193 192 192 194 191 188 187 189 187 188 193 194 196 191 188 187 191 188 180 187 184 184 179 176 176 172 174 173 170 176 174 171 176 172 183 181 184 185 183 169 198 199 250 115 75 66 10 262 255 289 267 282 276 282 282 282 275 267 268 267 266 265 278 289 296 300 305 307 309 310 312 312 312 311 309 308 306 305 305 306 305
198 200 199 196 196 194 195 194 191 190 189 190 190 191 195 194 194 193 190 188 190 187 187 190 184 178 178 184 181 172 171 175 180 181 173 177 175 180 184 183 185 185 185 185 168 200 229 265 155 156 184 222 228 258 255 242 252 261 272 274 275 270 260 260 260 257 271 284 294 301 305 306 308 309 309 310 309 307 305 304 304 303 303 303 301
203 203 196 196 195 198 199 194 192 193 193 193 191 195 195 193 194 194 190 190 193 194 192 187 183 182 185 181 184 177 175 178 181 178 181 176 178 182 182 188 185 183 185 180 191 172 187 205 224 147 172 162 236 253 254 247 243 249 242 254 252 255 255 255 258 260 265 281 297 304 305 306 307 307 307 306 305 304 303 302 302 302 299 297 297
208 198 203 197 196 196 199 199 195 195 196 193 192 195 196 196 196 191 190 192 194 196 194 191 187 186 186 189 181 176 177 180 180 183 179 181 182 179 185 184 184 180 175 181 180 176 182 205 217 198 197 219 227 243 248 252 249 240 242 244 247 248 251 247 249 255 268 285 295 299 301 302 303 304 302 302 303 301 299 299 297 296 295 295 294
206 206 203 199 201 200 201 201 199 197 191 190 195 196 195 193 193 193 191 193 196 195 194 193 191 191 190 188 180 177 180 183 186 182 179 181 176 182 183 183 178 175 174 173 176 179 185 203 200 230 205 221 227 225 234 233 248 264 259 250 246 248 252 266 244 259 273 291 300 289 292 294 291 292 295 297 298 297 296 295 294 294 294 294 292
208 206 205 205 208 206 205 202 204 198 191 190 191 192 195 195 194 192 189 191 194 196 197 194 191 191 191 188 183 183 187 189 182 180 177 177 180 184 183 177 175 175 176 177 176 178 182 186 204 218 235 228 216 233 235 231 236 242 261 273 267 254 264 298 304 297 293 284 274 287 291 296 297 296 297 296 296 295 292 290 290 291 294 291 290
209 206 203 203 205 204 206 205 208 204 202 198 195 192 192 194 195 197 194 191 191 194 194 193 191 191 190 187 187 189 191 190 183 177 174 177 172 178 177 173 177 176 179 175 175 177 178 182 193 209 220 230 225 219 222 225 245 254 240 292 303 310 308 300 294 301 289 276 287 274 277 283 279 284 286 285 288 291 289 289 290 290 289 289 287
213 213 208 204 201 203 206 205 204 202 205 205 200 192 190 193 195 197 196 195 191 190 189 191 192 190 189 189 190 191 190 186 182 177 179 173 167 171 176 175 178 179 176 177 174 172 175 175 197 224 231 232 223 204 221 214 232 264 277 300 299 302 302 302 286 256 277 293 285 283 286 279 297 292 296 293 287 286 285 286 289 291 289 288 287
215 211 208 205 204 204 202 203 203 203 208 210 202 191 188 191 193 196 195 196 194 190 187 187 189 190 190 188 188 184 184 183 181 179 180 180 180 174 168 173 177 177 179 173 178 175 169 182 195 208 225 226 219 217 219 240 243 263 295 309 307 309 305 297 286 264 300 283 302 306 301 319 305 295 291 287 282 279 284 289 286 288 288 290 291
213 210 205 209 209 205 203 202 203 206 208 211 201 196 195 190 187 194 195 196 195 195 192 186 188 187 187 186 181 182 180 182 183 181 180 181 181 181 180 180 181 176 172 177 180 173 173 188 194 208 216 236 235 222 229 246 256 291 296 298 301 312 320 326 322 331 175 337 320 309 305 309 287 288 288 275 287 286 283 280 290 293 294 293 292
216 210 213 216 213 208 207 206 208 209 208 198 198 197 195 193 187 186 189 193 195 197 196 194 190 183 182 178 179 178 180 182 179 181 182 182 182 182 184 186 190 192 191 179 170 174 181 184 199 208 217 227 235 218 246 273 287 290 290 304 307 309 309 311 310 311 328 355 319 309 297 304 295 293 292 273 274 280 286 296 300 299 295 292 292
209 213 220 213 214 212 209 209 210 207 210 195 196 195 195 194 189 183 190 190 191 196 194 193 189 182 178 177 177 181 180 181 178 179 175 181 183 183 186 190 195 198 200 196 190 180 179 187 197 209 207 204 227 233 146 216 283 292 302 295 293 297 300 302 308 312 321 348 314 307 301 324 298 294 295 294 284 285 294 297 297 297 296 297 295
212 220 220 219 219 214 213 213 213 210 210 196 195 194 194 193 190 184 191 188 192 194 193 191 188 185 182 182 176 167 174 179 179 177 174 176 176 180 185 190 196 205 207 207 203 197 200 196 197 213 206 180 204 182 214 265 274 274 286 282 292 308 320 306 306 296 301 336 306 309 298 315 52 313 294 295 290 282 277 290 295 297 297 298 300
214 215 216 219 219 215 215 213 214 213 212 199 198 195 193 191 190 183 186 187 190 193 193 192 192 187 186 185 174 167 167 178 181 179 174 175 174 179 185 191 199 203 206 209 209 206 210 187 186 208 206 197 198 219 235 247 261 254 262 304 356 324 306 306 292 286 296 288 269 290 284 307 353 311 291 296 296 284 270 284 294 296 295 296 294
232 227 228 223 224 219 216 212 213 215 208 196 199 196 194 192 189 183 184 185 188 190 191 192 191 188 186 177 168 170 166 174 180 180 177 171 174 178 185 191 192 195 206 207 201 204 192 194 204 201 206 219 227 225 226 228 227 277 337 5 333 338 342 318 299 307 286 287 242 272 288 297 324 298 293 295 286 286 290 277 289 290 291 292 292
226 221 222 215 219 218 214 213 214 216 208 198 197 195 193 191 186 183 181 183 185 187 191 188 188 187 186 179 174 171 177 173 181 180 179 173 173 179 182 186 186 189 206 202 210 215 216 217 214 216 226 234 249 269 285 289 290 314 360 331 312 7 337 314 298 300 288 323 278 266 274 290 304 299 297 300 301 294 294 287 274 283 287 291 293
230 225 216 219 218 216 214 213 211 211 209 199 198 196 194 192 183 178 178 183 186 186 185 184 184 185 188 188 185 179 176 174 181 181 179 176 174 179 179 180 185 195 201 186 196 213 217 221 226 233 235 242 264 274 286 294 301 314 18 283 291 15 295 267 284 296 301 294 281 254 228 262 302 306 300 300 299 277 270 283 287 281 288 290 289
240 229 212 216 218 215 218 216 211 213 208 201 201 199 195 193 184 172 173 180 181 187 182 182 183 182 187 190 190 187 174 175 182 182 180 176 171 178 179 177 188 199 198 183 184 185 204 182 182 172 244 255 127 101 331 319 319 327 309 268 288 246 263 264 269 300 306 317 169 77 323 299 303 296 313 315 306 295 221 254 290 289 287 282 286